Location: Glendale
(37.4556°N, 88.6714°W)
Time: 01:30:28
(UTC+00:00)

Cosmos 2237 Rocket - Pass Details

Date: 08 December 2019
Orbit: 836 x 849 km, 71.0° (Epoch: 28 January)

Event Time Altitude Azimuth Distance (km) Brightness Sun altitude
Exits shadow 10:09:02 12° 176° (S) 2,277 4.5 -32.5°
Drops below altitude 10° 10:09:29 10° 175° (S) 2,442 4.7 -32.4°
Sets 10:11:56 0° 171° (S) 3,371 5.5 -31.9°
